Regional Weather Roundup
Issued by NWS

Home | Current Version | Previous Version | Graphics & Text | Print | Product List | Glossary On
Versions: 1 2 3 4 5 6 7 8 9 10 11 12 13 14 15 16 17 18 19 20 21 22 23 24 25 26 27 28
000
ASUS45 KSLC 201010
RWRUT

UTAH REGIONAL WEATHER ROUNDUP
NATIONAL WEATHER SERVICE SALT LAKE CITY UT
400 AM MDT SUN APR 20 2014

UTZ001>011-023>025-201100-

NORTHERN UTAH

CITY           SKY/WX    TMP DP  RH WIND       PRES   REMARKS
HILL AFB         N/A     53  31  43 E13       30.03R
LOGAN          MOCLDY    48  38  68 VRB5      30.02S
OGDEN            N/A     52  32  46 S8        30.02R
PROVO AIRPORT    N/A     48  36  61 CALM      30.06R
SALT LAKE CITY MOCLDY    55  37  50 SE9       30.01R
VERNAL         CLEAR     42  35  76 W6        30.09R
WENDOVER         N/A     61  34  36 NW8       30.02S
HEBER CITY     MOCLDY    39  34  81 CALM      30.11R
WEST JORDAN    CLOUDY    55  39  54 S9        30.04R

$$

UTZ012>022-026-027-201100-

SOUTHERN UTAH

CITY           SKY/WX    TMP DP  RH WIND       PRES   REMARKS
BRYCE CANYON     N/A     30  27  88 W6        30.21S WCI  24
CEDAR CITY     CLOUDY    52  32  46 SE5       30.11R
MILFORD        MOCLDY    55  34  45 SW14      30.07S
MOAB/CYNLANDS  CLEAR     46  38  73 CALM      30.05S
PRICE            N/A     45  33  63 NE5       30.11R
ST GEORGE        N/A     63  36  36 E8        30.04R
KANAB            N/A     41  32  70 NE5       30.16R

$$

REGIONAL REPORTS     COLORADO/ARIZONA

CITY           SKY/WX    TMP DP  RH WIND       PRES   REMARKS
CRAIG, CO      CLEAR     34  32  92 CALM      30.14R
GRAND JUNCTION CLEAR     44  40  85 E3        30.08S
RIFLE          CLEAR     40  35  83 CALM      30.13R
MONTROSE       PTCLDY    42  38  85 S6        30.15R
CORTEZ         CLEAR     37  32  82 E6        30.13R WCI  32
PAGE, AZ         N/A     54  35  48 SE3       30.07S
GRAND CANYON     N/A     30  29  96 CALM      30.20R
KINGMAN          N/A     59  38  45 SE8       30.06R
FLAGSTAFF        N/A     33  29  85 CALM      30.21S

$$

REGIONAL REPORTS    NEVADA/IDAHO/WYOMING

CITY           SKY/WX    TMP DP  RH WIND       PRES   REMARKS
LAS VEGAS, NV    N/A     69  33  26 S10       29.93R
ELY              N/A     43  34  70 S10       30.14S
ELKO             N/A     47  23  38 CALM      30.13R
POCATELLO, ID  CLEAR     51  27  39 S18G29    30.05R
BURLEY         LGT RAIN  50  29  44 W17G39    30.08R
EVANSTON, WY   PTCLDY    42  29  59 S7        30.12S
ROCK SPRINGS   CLEAR     43  28  55 SW8       30.11S

$$



USA.gov is the U.S. government's official web portal to all federal, state and local government web resources and services.